When you browse on this site, cookies collect data to enhance your experience and personalize the content and advertising you see.
Visit our Privacy Policy to learn more. By continuing to use the site, you agree to this use of cookies and data.
  • In Czech Republic
  • List of Countries
  • For 7 days
  • Water Temperature
  • Satellite Maps
  • Weather Map
  • Weather Widgets
  • user-avatar
    Login

    Hourly Weather Tarin Kowt

    Today, 21 March, Thursday

    Time Temperature Precipitation Wind Pressure Humidity
    00:00 +8°C° 0 mm 1 mps 616 mmHg 50%
    01:00 +8°C° 0 mm 1 mps 616 mmHg 50%
    02:00 +8°C° 0 mm 1 mps 616 mmHg 50%
    03:00 +7°C° 0 mm 1 mps 616 mmHg 51%
    04:00 +7°C° 0 mm 1 mps 615 mmHg 53%
    05:00 +7°C° 0 mm 1 mps 616 mmHg 51%
    06:00 +8°C° 0 mm 1 mps 616 mmHg 49%
    07:00 +8°C° 0 mm 2 mps 617 mmHg 48%
    08:00 +10°C° 0 mm 1 mps 617 mmHg 42%
    09:00 +11°C° 0 mm 1 mps 618 mmHg 37%
    10:00 +12°C° 0 mm 1 mps 618 mmHg 32%
    11:00 +13°C° 0 mm 1 mps 618 mmHg 30%
    12:00 +13°C° 0 mm 1 mps 618 mmHg 29%
    13:00 +13°C° 0 mm 0 mps 618 mmHg 27%
    14:00 +13°C° 0 mm 0 mps 618 mmHg 26%
    15:00 +14°C° 0 mm 0 mps 618 mmHg 26%
    16:00 +15°C° 0 mm 1 mps 618 mmHg 25%
    17:00 +14°C° 0 mm 1 mps 618 mmHg 28%
    18:00 +14°C° 0 mm 2 mps 618 mmHg 32%
    19:00 +13°C° 0 mm 2 mps 617 mmHg 35%
    20:00 +13°C° 0 mm 2 mps 618 mmHg 37%
    21:00 +12°C° 0 mm 2 mps 618 mmHg 38%
    22:00 +11°C° 0 mm 3 mps 618 mmHg 39%
    23:00 +10°C° 0 mm 2 mps 617 mmHg 41%

    Tomorrow, 22 March, Friday

    Time Temperature Precipitation Wind Pressure Humidity
    00:00 +10°C° 0 mm 2 mps 617 mmHg 43%
    01:00 +9°C° 0 mm 2 mps 617 mmHg 46%
    02:00 +9°C° 0.1 mm 2 mps 617 mmHg 47%
    03:00 +8°C° 0.1 mm 2 mps 616 mmHg 48%
    04:00 +8°C° 0.1 mm 2 mps 616 mmHg 50%
    05:00 +8°C° 0.2 mm 2 mps 617 mmHg 50%
    06:00 +8°C° 0.2 mm 3 mps 617 mmHg 50%
    07:00 +8°C° 0.2 mm 3 mps 617 mmHg 51%
    08:00 +10°C° 0.3 mm 3 mps 617 mmHg 48%
    09:00 +11°C° 0.3 mm 3 mps 618 mmHg 45%
    10:00 +13°C° 0.3 mm 3 mps 618 mmHg 42%
    11:00 +14°C° 0.4 mm 4 mps 618 mmHg 42%
    12:00 +14°C° 0.4 mm 4 mps 618 mmHg 42%
    13:00 +15°C° 0.4 mm 4 mps 618 mmHg 42%
    14:00 +16°C° 0.4 mm 3 mps 617 mmHg 42%
    15:00 +16°C° 0.4 mm 3 mps 617 mmHg 43%
    16:00 +16°C° 0.4 mm 3 mps 617 mmHg 43%
    17:00 +16°C° 0.1 mm 2 mps 617 mmHg 45%
    18:00 +15°C° 0.1 mm 2 mps 617 mmHg 48%
    19:00 +15°C° 0.1 mm 2 mps 617 mmHg 50%
    20:00 +14°C° 0 mm 1 mps 617 mmHg 53%
    21:00 +14°C° 0 mm 1 mps 617 mmHg 55%
    22:00 +13°C° 0 mm 1 mps 617 mmHg 58%
    23:00 +13°C° 0.1 mm 1 mps 617 mmHg 60%

    Day after tomorrow, 23 March, Saturday

    Time Temperature Precipitation Wind Pressure Humidity
    00:00 +12°C° 0.1 mm 1 mps 617 mmHg 63%
    01:00 +11°C° 0.1 mm 1 mps 617 mmHg 65%
    02:00 +11°C° 0.7 mm 1 mps 617 mmHg 68%
    03:00 +11°C° 0.7 mm 1 mps 616 mmHg 71%
    04:00 +11°C° 0.7 mm 1 mps 616 mmHg 74%
    05:00 +11°C° 1.1 mm 1 mps 616 mmHg 76%
    06:00 +10°C° 1.1 mm 1 mps 617 mmHg 77%
    07:00 +9°C° 1.1 mm 2 mps 617 mmHg 79%
    08:00 +10°C° 1 mm 2 mps 617 mmHg 72%
    09:00 +12°C° 1 mm 2 mps 618 mmHg 65%
    10:00 +13°C° 1 mm 2 mps 618 mmHg 59%
    11:00 +14°C° 0.9 mm 2 mps 618 mmHg 55%
    12:00 +15°C° 0.9 mm 1 mps 618 mmHg 50%
    13:00 +15°C° 0.9 mm 1 mps 618 mmHg 46%
    14:00 +16°C° 0.4 mm 2 mps 618 mmHg 44%
    15:00 +16°C° 0.4 mm 2 mps 617 mmHg 43%
    16:00 +16°C° 0.4 mm 2 mps 617 mmHg 41%
    17:00 +16°C° 0.1 mm 2 mps 617 mmHg 45%
    18:00 +15°C° 0.1 mm 1 mps 617 mmHg 50%
    19:00 +14°C° 0.1 mm 1 mps 618 mmHg 55%
    20:00 +14°C° 0.4 mm 1 mps 618 mmHg 57%
    21:00 +13°C° 0.4 mm 1 mps 618 mmHg 59%
    22:00 +13°C° 0.4 mm 1 mps 618 mmHg 62%
    23:00 +12°C° 0.4 mm 1 mps 618 mmHg 63%

    24 March, Sunday

    Time Temperature Precipitation Wind Pressure Humidity
    00:00 +12°C° 0.4 mm 1 mps 617 mmHg 65%
    01:00 +12°C° 0.4 mm 1 mps 617 mmHg 66%
    02:00 +11°C° 0.1 mm 1 mps 617 mmHg 66%
    03:00 +11°C° 0.1 mm 1 mps 617 mmHg 66%
    04:00 +10°C° 0.1 mm 1 mps 617 mmHg 67%
    05:00 +11°C° 0 mm 1 mps 617 mmHg 63%
    06:00 +11°C° 0 mm 1 mps 618 mmHg 59%
    07:00 +12°C° 0 mm 2 mps 618 mmHg 56%
    08:00 +13°C° 0 mm 2 mps 618 mmHg 50%
    09:00 +14°C° 0 mm 2 mps 619 mmHg 44%
    10:00 +15°C° 0 mm 2 mps 619 mmHg 39%
    11:00 +16°C° 0 mm 2 mps 619 mmHg 35%
    12:00 +18°C° 0 mm 1 mps 619 mmHg 32%
    13:00 +16°C° 0 mm 0 mps 618 mmHg 28%
    14:00 +16°C° 0 mm 0 mps 618 mmHg 28%
    15:00 +16°C° 0 mm 0 mps 618 mmHg 28%
    16:00 +16°C° 0 mm 0 mps 617 mmHg 28%
    17:00 +16°C° 0 mm 0 mps 617 mmHg 32%
    18:00 +16°C° 0 mm 1 mps 618 mmHg 35%
    19:00 +16°C° 0 mm 1 mps 618 mmHg 39%
    20:00 +15°C° 0 mm 1 mps 618 mmHg 41%
    21:00 +14°C° 0 mm 1 mps 618 mmHg 43%
    22:00 +14°C° 0 mm 1 mps 618 mmHg 45%
    23:00 +13°C° 0.1 mm 1 mps 617 mmHg 48%

    25 March, Monday

    Time Temperature Precipitation Wind Pressure Humidity
    00:00 +13°C° 0.1 mm 1 mps 617 mmHg 50%
    01:00 +12°C° 0.1 mm 2 mps 617 mmHg 52%
    02:00 +12°C° 0 mm 1 mps 617 mmHg 54%
    03:00 +12°C° 0 mm 1 mps 616 mmHg 56%
    04:00 +11°C° 0 mm 1 mps 616 mmHg 58%
    05:00 +12°C° 0 mm 1 mps 617 mmHg 56%
    06:00 +12°C° 0 mm 1 mps 617 mmHg 53%
    07:00 +13°C° 0 mm 2 mps 618 mmHg 51%
    08:00 +14°C° 0 mm 2 mps 618 mmHg 46%
    09:00 +15°C° 0 mm 2 mps 619 mmHg 42%
    10:00 +16°C° 0 mm 2 mps 619 mmHg 38%
    11:00 +16°C° 0 mm 2 mps 619 mmHg 36%
    12:00 +17°C° 0 mm 3 mps 619 mmHg 35%
    13:00 +18°C° 0 mm 3 mps 619 mmHg 33%
    14:00 +18°C° 0 mm 3 mps 619 mmHg 34%
    15:00 +19°C° 0 mm 2 mps 619 mmHg 35%
    16:00 +19°C° 0 mm 2 mps 619 mmHg 36%
    17:00 +19°C° 0 mm 1 mps 619 mmHg 41%
    18:00 +18°C° 0 mm 1 mps 619 mmHg 47%
    19:00 +16°C° 0 mm 0 mps 619 mmHg 53%
    20:00 +15°C° 0 mm 0 mps 619 mmHg 54%
    21:00 +15°C° 0 mm 0 mps 619 mmHg 55%
    22:00 +14°C° 0 mm 0 mps 620 mmHg 56%
    23:00 +15°C° 0 mm 1 mps 619 mmHg 56%

    26 March, Tuesday

    Time Temperature Precipitation Wind Pressure Humidity
    00:00 +14°C° 0 mm 1 mps 619 mmHg 56%
    01:00 +14°C° 0 mm 1 mps 619 mmHg 56%
    02:00 +14°C° 0 mm 1 mps 619 mmHg 56%
    03:00 +13°C° 0 mm 2 mps 618 mmHg 56%
    04:00 +13°C° 0 mm 2 mps 618 mmHg 57%
    05:00 +13°C° 0 mm 2 mps 619 mmHg 56%
    06:00 +14°C° 0 mm 2 mps 619 mmHg 54%
    07:00 +14°C° 0 mm 2 mps 620 mmHg 53%
    08:00 +16°C° 0 mm 2 mps 620 mmHg 48%
    09:00 +17°C° 0 mm 2 mps 621 mmHg 43%
    10:00 +19°C° 0 mm 2 mps 621 mmHg 38%
    11:00 +20°C° 0 mm 2 mps 621 mmHg 36%
    12:00 +20°C° 0 mm 2 mps 621 mmHg 34%
    13:00 +21°C° 0 mm 2 mps 620 mmHg 31%
    14:00 +23°C° 0 mm 2 mps 620 mmHg 31%
    15:00 +22°C° 0 mm 3 mps 620 mmHg 30%
    16:00 +22°C° 0 mm 3 mps 620 mmHg 29%
    17:00 +22°C° 0 mm 3 mps 620 mmHg 33%
    18:00 +21°C° 0 mm 2 mps 620 mmHg 38%
    19:00 +21°C° 0 mm 1 mps 620 mmHg 42%
    20:00 +20°C° 0 mm 1 mps 620 mmHg 43%
    21:00 +20°C° 0 mm 1 mps 620 mmHg 43%
    22:00 +20°C° 0 mm 1 mps 620 mmHg 44%
    23:00 +19°C° 0.1 mm 1 mps 620 mmHg 45%
    Show more